Location: Colle San Luigi
(43.5500°N, 13.4167°E)
Time: 13:42:46
(UTC+00:00)

Cosmos 1076 Rocket - Pass Details

Date: 09 April 2020
Orbit: 590 x 612 km, 82.5° (Epoch: 26 May)

Event Time Altitude Azimuth Distance (km) Brightness Sun altitude
Rises 19:39:35 0° 354° (N) 2,849 7.5 -20.2°
Reaches altitude 10° 19:41:49 10° 358° (N) 1,945 6.6 -20.6°
Maximum altitude 19:46:05 62° 80° (E) 676 3.5 -21.2°
Enters shadow 19:46:22 61° 101° (ESE) 686 3.4 -21.3°
